�������l�o���
Date,Time,MP-1(��Sv/h),MP-2(��Sv/h),MP-3(��Sv/h),MP-4(��Sv/h),MP-5(��Sv/h),MP-6(��Sv/h),MP-7(��Sv/h),MP-8(��Sv/h),����,����(m/s),���J
2024/01/09,00:00,0.504,0.766,0.479,0.968,0.685,0.309,0.556,0.522,�쐼,4.8,��
2024/01/09,00:10,0.505,0.763,0.480,0.968,0.686,0.310,0.556,0.520,�쐼,6.0,��
2024/01/09,00:20,0.506,0.764,0.479,0.970,0.686,0.310,0.555,0.522,�쐼,6.1,��
2024/01/09,00:30,0.506,0.763,0.478,0.970,0.686,0.310,0.556,0.524,�쐼,5.6,��
2024/01/09,00:40,0.505,0.763,0.480,0.968,0.685,0.310,0.555,0.521,�쐼,6.3,��
2024/01/09,00:50,0.505,0.763,0.480,0.968,0.686,0.310,0.557,0.522,���쐼,6.2,��
2024/01/09,01:00,0.505,0.762,0.480,0.970,0.686,0.309,0.558,0.523,���쐼,6.0,��
2024/01/09,01:10,0.506,0.765,0.478,0.969,0.686,0.310,0.558,0.523,��,5.5,��
2024/01/09,01:20,0.506,0.763,0.479,0.968,0.687,0.310,0.557,0.521,��,4.8,��
2024/01/09,01:30,0.504,0.763,0.479,0.969,0.686,0.310,0.558,0.522,���k��,4.5,��
2024/01/09,01:40,0.506,0.761,0.479,0.970,0.687,0.309,0.558,0.523,���k��,5.3,��
2024/01/09,01:50,0.504,0.763,0.481,0.970,0.687,0.311,0.557,0.522,���k��,4.5,��
2024/01/09,02:00,0.505,0.763,0.481,0.970,0.686,0.310,0.557,0.522,�k��,3.4,��
2024/01/09,02:10,0.505,0.764,0.481,0.968,0.687,0.310,0.556,0.523,�k�k��,3.2,��
2024/01/09,02:20,0.505,0.762,0.481,0.968,0.685,0.310,0.557,0.524,�k,2.3,��
2024/01/09,02:30,0.506,0.764,0.479,0.968,0.685,0.308,0.556,0.524,�k�k��,1.8,��
2024/01/09,02:40,0.505,0.762,0.479,0.969,0.685,0.310,0.557,0.521,�k��,2.9,��
2024/01/09,02:50,0.506,0.764,0.479,0.971,0.685,0.310,0.554,0.522,�k�k��,3.2,��
2024/01/09,03:00,0.507,0.763,0.480,0.968,0.686,0.311,0.557,0.523,�k�k��,3.9,��
2024/01/09,03:10,0.506,0.764,0.480,0.968,0.685,0.310,0.556,0.522,�k�k��,2.8,��
2024/01/09,03:20,0.505,0.764,0.480,0.968,0.686,0.309,0.557,0.523,�k�k��,2.8,��
2024/01/09,03:30,0.504,0.762,0.480,0.971,0.684,0.309,0.555,0.522,�k�k��,1.5,��
2024/01/09,03:40,0.505,0.763,0.478,0.966,0.686,0.309,0.556,0.522,���k��,1.5,��
2024/01/09,03:50,0.505,0.763,0.478,0.968,0.685,0.309,0.556,0.523,-,CALM,��
2024/01/09,04:00,0.506,0.763,0.479,0.969,0.685,0.310,0.557,0.522,���쐼,1.4,��
2024/01/09,04:10,0.505,0.763,0.480,0.969,0.685,0.309,0.557,0.523,���k��,2.5,��
2024/01/09,04:20,0.506,0.762,0.479,0.969,0.685,0.310,0.555,0.521,���k��,4.6,��
2024/01/09,04:30,0.506,0.761,0.479,0.968,0.686,0.309,0.558,0.523,�k��,6.0,��
2024/01/09,04:40,0.505,0.763,0.480,0.969,0.685,0.311,0.558,0.524,�k��,5.9,��
2024/01/09,04:50,0.506,0.762,0.478,0.968,0.685,0.308,0.557,0.522,���k��,6.5,��
2024/01/09,05:00,0.507,0.761,0.479,0.969,0.685,0.309,0.555,0.522,�k��,4.9,��
2024/01/09,05:10,0.505,0.761,0.479,0.968,0.686,0.310,0.557,0.523,�k��,6.1,��
2024/01/09,05:20,0.506,0.762,0.479,0.969,0.685,0.309,0.556,0.523,�k��,5.2,��
2024/01/09,05:30,0.506,0.763,0.480,0.970,0.685,0.310,0.558,0.524,�k��,3.3,��
2024/01/09,05:40,0.506,0.764,0.479,0.968,0.685,0.309,0.557,0.521,��,1.2,��
2024/01/09,05:50,0.506,0.762,0.479,0.968,0.685,0.310,0.556,0.523,��,2.0,��
2024/01/09,06:00,0.505,0.763,0.479,0.970,0.685,0.310,0.557,0.522,�쐼,1.7,��
2024/01/09,06:10,0.504,0.762,0.479,0.969,0.686,0.309,0.557,0.522,��쓌,2.6,��
2024/01/09,06:20,0.506,0.761,0.479,0.969,0.685,0.309,0.557,0.522,��,2.0,��
2024/01/09,06:30,0.504,0.764,0.479,0.970,0.687,0.309,0.555,0.523,��쓌,3.0,��
2024/01/09,06:40,0.506,0.762,0.479,0.967,0.684,0.310,0.556,0.522,��쓌,2.6,��
2024/01/09,06:50,0.506,0.761,0.478,0.968,0.686,0.310,0.554,0.523,�쓌,2.0,��
2024/01/09,07:00,0.505,0.764,0.479,0.971,0.684,0.309,0.555,0.523,��쓌,3.0,��
2024/01/09,07:10,0.506,0.761,0.481,0.968,0.685,0.310,0.557,0.522,��쓌,1.7,��
2024/01/09,07:20,0.507,0.763,0.479,0.970,0.684,0.309,0.557,0.522,��쓌,2.0,��
2024/01/09,07:30,0.506,0.762,0.479,0.969,0.686,0.310,0.554,0.521,��,1.9,��
2024/01/09,07:40,0.506,0.762,0.479,0.970,0.684,0.309,0.556,0.523,��쐼,2.3,��
2024/01/09,07:50,0.507,0.763,0.479,0.969,0.684,0.310,0.557,0.523,��,2.9,��
2024/01/09,08:00,0.505,0.762,0.476,0.968,0.685,0.309,0.557,0.524,��,3.4,��
2024/01/09,08:10,0.507,0.761,0.479,0.970,0.684,0.310,0.557,0.523,��쓌,3.2,��
2024/01/09,08:20,0.504,0.761,0.479,0.970,0.684,0.310,0.556,0.523,��,3.2,��
2024/01/09,08:30,0.505,0.763,0.479,0.969,0.682,0.308,0.557,0.524,��,2.2,��
2024/01/09,08:40,0.506,0.761,0.478,0.969,0.685,0.309,0.559,0.523,��,2.6,��
2024/01/09,08:50,0.504,0.763,0.479,0.968,0.683,0.309,0.556,0.522,��,1.9,��
2024/01/09,09:00,0.508,0.762,0.478,0.970,0.684,0.309,0.557,0.523,��,1.4,��
2024/01/09,09:10,0.507,0.764,0.478,0.971,0.686,0.309,0.558,0.524,�k,0.6,��
2024/01/09,09:20,0.508,0.764,0.478,0.970,0.683,0.310,0.558,0.523,��쓌,0.9,��
2024/01/09,09:30,0.504,0.763,0.480,0.968,0.683,0.311,0.558,0.523,��쓌,0.9,��
2024/01/09,09:40,0.507,0.765,0.481,0.970,0.687,0.309,0.560,0.523,-,CALM,��
2024/01/09,09:50,0.508,0.763,0.480,0.968,0.684,0.308,0.557,0.524,���쓌,0.8,��
2024/01/09,10:00,0.507,0.765,0.479,0.970,0.684,0.308,0.556,0.525,�k�k��,1.1,��
2024/01/09,10:10,0.507,0.764,0.480,0.968,0.684,0.309,0.556,0.525,�k�k��,1.5,��
2024/01/09,10:20,0.507,0.762,0.481,0.971,0.686,0.311,0.556,0.522,�k,0.8,��
2024/01/09,10:30,0.508,0.763,0.481,0.968,0.686,0.311,0.557,0.524,���k��,0.9,��
2024/01/09,10:40,0.508,0.762,0.480,0.970,0.688,0.311,0.556,0.525,��,1.5,��
2024/01/09,10:50,0.507,0.763,0.482,0.969,0.686,0.311,0.557,0.525,-,CALM,��
2024/01/09,11:00,0.508,0.763,0.480,0.970,0.686,0.312,0.557,0.524,�쓌,1.5,��
2024/01/09,11:10,0.509,0.766,0.482,0.971,0.688,0.311,0.559,0.525,-,CALM,��
2024/01/09,11:20,0.508,0.764,0.482,0.972,0.688,0.312,0.558,0.524,�쓌,2.2,��
2024/01/09,11:30,0.509,0.765,0.481,0.970,0.688,0.311,0.556,0.525,��쐼,3.9,��
2024/01/09,11:40,0.507,0.765,0.483,0.972,0.691,0.311,0.557,0.524,�쐼,6.3,��
2024/01/09,11:50,0.508,0.766,0.483,0.972,0.689,0.311,0.558,0.524,�쐼,8.1,��
2024/01/09,12:00,0.508,0.765,0.482,0.971,0.689,0.312,0.560,0.525,��쐼,6.8,��
2024/01/09,12:10,0.508,0.764,0.485,0.972,0.691,0.312,0.558,0.527,��쐼,6.9,��
2024/01/09,12:20,0.508,0.767,0.484,0.971,0.690,0.312,0.560,0.525,��쐼,6.3,��
2024/01/09,12:30,0.509,0.765,0.484,0.970,0.691,0.313,0.560,0.526,��쐼,7.6,��
2024/01/09,12:40,0.510,0.766,0.485,0.973,0.692,0.314,0.560,0.526,��쐼,5.9,��
2024/01/09,12:50,0.507,0.766,0.484,0.971,0.692,0.314,0.561,0.526,��쐼,5.1,��
2024/01/09,13:00,0.510,0.765,0.483,0.971,0.691,0.313,0.562,0.524,��쐼,5.2,��
2024/01/09,13:10,0.509,0.766,0.485,0.972,0.692,0.311,0.560,0.526,�쐼,4.3,��
2024/01/09,13:20,0.508,0.767,0.485,0.971,0.692,0.313,0.562,0.523,��쐼,4.5,��
2024/01/09,13:30,0.509,0.767,0.485,0.972,0.693,0.313,0.561,0.525,��쐼,5.0,��
2024/01/09,13:40,0.509,0.768,0.484,0.973,0.691,0.313,0.562,0.523,��쐼,5.9,��
2024/01/09,13:50,0.509,0.767,0.485,0.975,0.694,0.313,0.561,0.522,��쐼,4.5,��
2024/01/09,14:00,0.510,0.765,0.484,0.972,0.693,0.314,0.560,0.522,��쐼,3.5,��
2024/01/09,14:10,0.509,0.767,0.486,0.971,0.694,0.315,0.560,0.523,��쐼,4.8,��
2024/01/09,14:20,0.509,0.767,0.486,0.971,0.693,0.313,0.560,0.522,��쐼,4.9,��
2024/01/09,14:30,0.508,0.767,0.484,0.976,0.694,0.314,0.564,0.522,��쐼,5.0,��
2024/01/09,14:40,0.510,0.769,0.485,0.973,0.693,0.312,0.562,0.523,��,4.5,��
2024/01/09,14:50,0.509,0.768,0.484,0.973,0.695,0.313,0.562,0.525,�쐼,5.3,��
2024/01/09,15:00,0.510,0.768,0.486,0.974,0.692,0.314,0.561,0.526,�쐼,5.4,��
2024/01/09,15:10,0.510,0.770,0.486,0.973,0.694,0.313,0.562,0.526,��,4.7,��
2024/01/09,15:20,0.510,0.770,0.486,0.972,0.693,0.314,0.562,0.526,��쐼,5.7,��
2024/01/09,15:30,0.510,0.772,0.486,0.973,0.692,0.314,0.561,0.526,��쐼,4.3,��
2024/01/09,15:40,0.510,0.772,0.485,0.973,0.693,0.313,0.561,0.528,��쐼,5.3,��
2024/01/09,15:50,0.510,0.771,0.486,0.973,0.694,0.313,0.560,0.524,��쐼,4.1,��
2024/01/09,16:00,0.509,0.772,0.485,0.973,0.694,0.314,0.561,0.525,��,4.9,��
2024/01/09,16:10,0.509,0.773,0.486,0.973,0.693,0.314,0.559,0.526,��,5.8,��
2024/01/09,16:20,0.510,0.771,0.486,0.973,0.694,0.313,0.561,0.523,��,7.2,��
2024/01/09,16:30,0.508,0.772,0.486,0.974,0.692,0.314,0.561,0.526,��,7.3,��
2024/01/09,16:40,0.512,0.771,0.486,0.973,0.695,0.314,0.560,0.525,��,7.3,��
2024/01/09,16:50,0.510,0.771,0.486,0.971,0.693,0.313,0.559,0.525,��,6.3,��
2024/01/09,17:00,0.509,0.772,0.485,0.974,0.694,0.314,0.561,0.525,��,7.0,��
2024/01/09,17:10,0.510,0.774,0.484,0.975,0.695,0.314,0.560,0.524,��쐼,6.0,��
2024/01/09,17:20,0.510,0.772,0.486,0.973,0.694,0.312,0.561,0.526,��,6.5,��
2024/01/09,17:30,0.510,0.772,0.485,0.974,0.694,0.312,0.559,0.524,��,6.9,��
2024/01/09,17:40,0.512,0.773,0.486,0.974,0.690,0.313,0.561,0.525,��,6.8,��
2024/01/09,17:50,0.512,0.771,0.486,0.972,0.694,0.313,0.560,0.524,��,6.2,��
2024/01/09,18:00,0.511,0.773,0.486,0.974,0.693,0.313,0.559,0.524,��,6.5,��
2024/01/09,18:10,0.510,0.771,0.485,0.975,0.694,0.313,0.560,0.524,��,6.8,��
2024/01/09,18:20,0.510,0.772,0.485,0.975,0.694,0.312,0.559,0.524,��,8.4,��
2024/01/09,18:30,0.510,0.773,0.484,0.976,0.694,0.313,0.560,0.523,��,8.6,��
2024/01/09,18:40,0.513,0.773,0.486,0.974,0.694,0.311,0.559,0.525,��,7.8,��
2024/01/09,18:50,0.510,0.771,0.485,0.974,0.693,0.313,0.559,0.524,��,6.0,��
2024/01/09,19:00,0.510,0.773,0.486,0.976,0.694,0.314,0.561,0.524,��쐼,5.4,��
2024/01/09,19:10,0.511,0.773,0.485,0.975,0.693,0.313,0.558,0.525,��,5.7,��
2024/01/09,19:20,0.510,0.771,0.485,0.973,0.692,0.313,0.559,0.524,��,4.7,��
2024/01/09,19:30,0.510,0.773,0.485,0.974,0.694,0.314,0.560,0.525,��,4.4,��
2024/01/09,19:40,0.511,0.770,0.486,0.975,0.695,0.314,0.559,0.526,��,3.9,��
2024/01/09,19:50,0.511,0.770,0.485,0.973,0.694,0.314,0.559,0.523,��,4.2,��
2024/01/09,20:00,0.511,0.772,0.486,0.975,0.694,0.312,0.559,0.524,��,3.9,��
2024/01/09,20:10,0.512,0.772,0.483,0.974,0.696,0.314,0.561,0.525,��,3.2,��
2024/01/09,20:20,0.512,0.770,0.485,0.974,0.695,0.314,0.560,0.524,��쐼,2.5,��
2024/01/09,20:30,0.510,0.770,0.485,0.973,0.693,0.314,0.560,0.524,��,2.3,��
2024/01/09,20:40,0.510,0.772,0.483,0.972,0.694,0.313,0.559,0.523,�쓌,2.6,��
2024/01/09,20:50,0.510,0.770,0.486,0.973,0.696,0.313,0.559,0.525,��쓌,3.5,��
2024/01/09,21:00,0.510,0.771,0.485,0.975,0.692,0.313,0.560,0.523,��,3.2,��
2024/01/09,21:10,0.511,0.772,0.485,0.975,0.694,0.313,0.561,0.525,��,3.5,��
2024/01/09,21:20,0.512,0.772,0.486,0.974,0.694,0.311,0.559,0.526,��,2.8,��
2024/01/09,21:30,0.511,0.771,0.486,0.975,0.695,0.314,0.559,0.524,��,1.5,��
2024/01/09,21:40,0.511,0.769,0.485,0.976,0.694,0.314,0.561,0.524,��,1.8,��
2024/01/09,21:50,0.510,0.770,0.485,0.974,0.693,0.313,0.557,0.525,��쓌,0.9,��
2024/01/09,22:00,0.510,0.772,0.485,0.972,0.694,0.313,0.559,0.525,��,1.7,��
2024/01/09,22:10,0.512,0.769,0.487,0.976,0.693,0.312,0.560,0.523,�k�k��,0.8,��
2024/01/09,22:20,0.511,0.771,0.484,0.975,0.692,0.314,0.560,0.524,�k�k��,1.5,��
2024/01/09,22:30,0.511,0.772,0.485,0.974,0.694,0.313,0.559,0.525,�k�k��,0.6,��
2024/01/09,22:40,0.511,0.771,0.486,0.975,0.695,0.315,0.560,0.524,��,0.9,��
2024/01/09,22:50,0.510,0.770,0.487,0.973,0.693,0.314,0.560,0.525,��,0.6,��
2024/01/09,23:00,0.513,0.771,0.486,0.974,0.695,0.313,0.560,0.523,��쓌,2.5,��
2024/01/09,23:10,0.511,0.771,0.484,0.976,0.695,0.315,0.561,0.525,�쐼,2.5,��
2024/01/09,23:20,0.510,0.770,0.485,0.975,0.692,0.314,0.562,0.523,���쐼,2.6,��
2024/01/09,23:30,0.511,0.771,0.486,0.975,0.694,0.313,0.561,0.525,���쐼,2.8,��
2024/01/09,23:40,0.509,0.770,0.484,0.975,0.693,0.312,0.559,0.524,��쐼,2.5,��
2024/01/09,23:50,0.510,0.772,0.484,0.975,0.695,0.313,0.560,0.524,���쐼,1.9,��
